SCP
0 0 -0 0 -0 -0 -0 0 0 0 0 0 0 0 0 0 0 -0 -0 -0 0 0 0 0 0 0 0 0 0 0 0 0 -0 0 0 0 0 0 0 0 0 0 0 0 0 0 0 0 0
0 0 -0 0 -0 -0 -0 0 0 0 0 0 0 0 0 0 0 -0 -0 -0 0 0 0 0 0 0 0 0 0 0 0 -0 -0 0 0 0 0 0 0 0 0 0 0 0 0 0 0 0 0
0 0 0 0 -0 -0 -0 0 0 0 0 0 0 0 0 0 0 -0 0 0 0 0 0 0 0 0 0 0 0 0 0 0 0 0 0 0 0 0 0 0 0 0 0 0 0 0 0 0 0
0 0 0 -0 -0 -0 0 0 0 0 0 0 0 0 0 0 0 -0 0 0 0 0 0 0 0 0 0 0 0 0 0 0 0 0 0 0 0 0 0 0 0 0 0 0 0 0 0 0 0
0 0 -0 -0 -0 -0 0 0 0 -0 0 0 0 0 0 0 -0 -0 -0 0 0 0 0 0 0 0 0 0 0 0 0 0 0 0 0 0 0 0 0 0 0 0 0 0 0 0 0 0 0
0 0 -0 -0 -0 -0 -0 -0 -0 0 0 0 0 0 0 -0 -0 -0 -0 0 0 0 0 0 0 0 0 0 0 0 0 0 0 0 0 0 0 0 0 0 0 0 0 0 0 0 0 -0 -0
0 0 -0 -0 -0 -0 -0 -0 0 0 0 0 0 0 0 -0 -0 -0 -0 -0 0 0 0 0 0 0 0 0 0 0 0 0 0 0 0 0 0 0 0 0 0 0 0 0 0 -0 -0 -0 -0
0 0 0 -0 -0 -0 -0 -0 0 0 0 0 0 0 0 -0 -0 -0 -0 -0 -0 -0 -0 0 0 0 0 0 0 0 0 0 0 0 0 0 0 0 0 0 0 0 0 0 0 0 -0 -0 -0
0 0 0 -0 -0 -0 -0 0 0 0 0 0 0 0 0 0 0 0 -0 -0 -0 -0 -0 0 0 0 0 0 0 0 0 0 0 0 0 0 0 0 0 0 0 0 0 0 0 0 0 0 0
0 0 0 -0 -0 -0 -0 0 0 0 0 0 0 0 0 0 0 0 0 -0 -0 -0 -0 0 0 0 0 0 0 0 0 0 0 0 0 0 0 0 0 0 0 0 0 0 0 0 0 0 0
0 0 0 0 0 0 0 0 0 0 0 0 0 0 0 0 0 0 0 -0 -0 -0 -0 0 0 0 0 0 0 0 0 0 0 0 0 0 0 0 0 0 0 0 0 0 0 0 0 0 0
0 0 0 0 0 0 0 0 0 0 0 0 0 0 0 0 0 0 0 0 -0 -0 -0 0 0 0 0 0 0 0 0 0 0 0 0 0 0 0 0 0 0 0 0 0 0 0 0 0 0
0 0 0 0 0 0 0 0 0 0 0 0 0 0 0 0 0 0 0 0 0 0 -0 -0 0 0 0 0 0 0 0 0 0 0 0 0 0 0 0 0 -0 -0 -0 0 0 0 -0 -0 -0
0 0 0 0 0 0 0 0 0 0 0 0 0 0 0 0 0 0 0 0 0 0 -0 -0 0 0 0 0 0 0 0 0 0 0 0 0 0 0 0 0 -0 -0 -0 0 0 0 0 0 -0
0 0 0 0 0 0 0 0 0 0 0 0 0 0 0 0 0 0 0 0 0 0 0 -0 0 0 0 0 0 0 0 0 0 0 0 0 0 0 0 0 -0 -0 -0 0 0 0 0 0 -0
0 0 0 0 0 0 0 0 0 0 0 0 0 0 0 0 0 0 0 0 0 0 0 0 0 0 0 0 0 0 0 0 0 0 0 0 0 0 0 0 0 0 0 0 0 0 0 0 0
0 0 0 0 0 0 0 0 0 0 0 0 0 0 0 0 0 0 0 0 0 0 0 0 0 0 0 0 0 0 0 0 0 0 0 0 0 0 0 0 0 0 0 0 0 0 0 0 0
0 0 0 0 0 0 0 0 0 0 0 0 0 0 0 0 0 0 0 0 0 0 0 0 0 0 0 0 0 0 0 0 0 0 0 0 0 0 0 0 0 0 0 0 0 0 0 0 0
0 0 0 0 0 0 0 0 0 0 0 0 0 0 0 0 0 0 0 0 0 0 0 0 0 0 0 0 0 0 0 0 0 0 0 0 0 0 0 0 0 0 0 0 0 0 0 0 0
0 0 0 0 0 0 0 0 0 0 0 0 0 0 0 0 0 0 0 0 0 0 0 0 0 0 0 0 0 0 0 0 0 0 0 0 0 0 0 0 0 0 0 0 0 0 0 0 0
0 0 0 0 0 0 0 0 0 0 0 0 0 0 0 0 0 0 0 0 0 0 0 0 0 0 0 0 0 0 0 0 0 0 0 0 0 0 0 0 0 0 0 0 0 0 0 0 0
0 0 0 0 0 0 0 0 0 0 0 0 0 0 0 0 0 0 0 0 0 0 0 0 0 0 0 0 0 0 0 0 0 0 0 0 0 0 0 0 0 0 0 0 0 0 0 0 0
0 0 0 0 0 0 0 0 0 0 0 0 0 0 0 0 0 0 0 0 0 0 0 0 0 0 0 0 0 0 0 0 0 0 0 0 0 0 0 0 0 0 0 0 0 0 0 0 0
0 0 0 0 0 0 0 0 0 0 0 0 0 0 0 0 0 0 0 0 0 0 0 0 0 0 0 0 0 0 0 0 0 0 0 0 0 0 0 0 0 0 0 0 0 0 0 0 0
0 0 0 0 0 0 0 0 0 0 0 0 0 0 0 0 0 0 0 0 0 0 0 0 0 0 0 0 0 0 0 0 0 0 0 0 0 0 0 0 0 0 0 0 0 0 0 0 0
0 0 0 0 0 0 0 0 0 0 0 0 0 0 0 0 0 0 0 0 0 0 0 0 0 0 0 0 0 0 0 0 0 0 0 0 0 0 0 0 0 0 0 0 0 0 0 0 0
0 0 0 0 0 0 0 0 0 0 0 0 0 0 0 0 0 0 0 0 0 0 0 0 0 0 0 0 0 0 0 0 0 0 0 0 0 0 0 0 0 0 0 0 0 0 0 0 0
0 0 0 0 0 0 0 0 0 0 0 0 0 0 0 0 0 0 0 0 0 0 0 0 0 0 0 0 0 0 0 0 0 0 0 0 0 0 0 0 0 0 0 0 0 0 0 0 0
0 0 0 0 0 0 0 0 0 0 0 0 0 0 0 0 0 0 0 0 0 0 0 0 0 0 0 0 0 0 0 0 0 0 0 0 0 0 0 0 0 0 0 0 0 1 1 1 1
0 0 0 0 0 0 0 0 0 0 0 0 0 0 0 0 0 0 0 0 0 0 0 0 0 0 0 0 0 0 0 0 0 0 0 0 0 0 0 0 0 0 0 0 0 1 1 1 1
Wind_Speed
4 6 5 4 6 7 8 4 3 4 3 2 2 0 2 3 5 3 4 4 5 10 11 12 11 12 12 11 9 10 8 4 4 5 6 7 8 8 6 6 7 7 6 7 6 6 4 6 7
5 4 5 4 7 10 9 6 6 3 2 3 3 2 2 1 3 4 6 5 8 10 9 9 9 12 11 10 9 9 7 5 5 5 6 7 7 8 6 6 7 5 5 6 5 5 3 6 6
2 4 5 6 8 11 6 4 4 3 3 2 2 2 2 2 3 4 5 8 9 9 8 7 8 12 11 10 10 8 6 5 4 5 5 6 7 8 6 5 5 5 5 4 4 4 3 4 5
2 5 6 8 11 11 4 1 4 6 6 4 3 2 2 2 3 5 7 10 11 10 7 9 10 11 9 10 9 8 7 6 6 5 5 5 6 7 6 5 3 4 5 4 3 3 2 3 3
2 6 9 10 12 8 6 2 2 7 6 5 5 3 4 5 5 6 9 9 10 8 7 10 9 9 7 8 9 8 6 6 6 5 4 3 5 5 6 4 4 5 5 4 3 2 2 2 3
4 6 11 13 13 8 5 5 5 8 7 5 5 3 5 7 7 8 9 9 9 8 7 8 8 7 6 6 8 8 7 7 7 5 4 3 4 5 5 3 3 5 4 2 2 2 3 3 2
7 7 10 11 10 9 6 5 7 8 9 5 3 2 5 8 9 10 10 9 8 8 8 7 8 8 6 6 8 7 7 6 7 6 5 4 4 5 6 5 4 5 3 2 1 2 3 4 2
4 7 8 10 10 9 4 4 3 7 6 1 2 2 4 9 12 11 9 8 8 8 8 8 7 7 8 8 8 6 5 6 7 5 5 5 5 3 5 4 6 5 3 2 1 2 2 1 1
4 9 10 8 7 4 2 4 3 2 4 4 3 1 5 12 14 12 10 8 8 9 9 8 8 7 7 6 7 6 6 8 7 6 7 6 4 4 5 5 6 4 3 2 1 1 1 1 2
7 11 9 4 1 2 1 4 3 6 8 7 8 7 9 13 15 15 14 13 13 13 12 11 10 9 7 6 6 8 8 8 9 8 8 6 5 3 2 4 4 4 3 2 1 2 1 4 4
8 11 5 2 1 4 3 4 4 7 8 9 9 12 14 15 16 16 15 15 16 15 14 13 12 11 9 7 7 6 6 7 7 9 8 6 5 4 5 4 4 4 4 4 5 5 4 4 4
8 11 6 1 0 3 3 2 5 11 9 3 4 7 16 18 19 18 17 16 15 15 15 14 15 13 12 10 8 8 7 7 7 9 10 7 5 6 6 4 4 4 4 4 4 4 5 5 6
10 6 5 3 3 3 3 4 5 10 10 5 1 7 14 17 17 17 15 14 15 16 16 16 15 16 14 12 10 10 10 10 10 9 10 9 7 7 7 6 6 5 5 5 5 6 6 6 6
6 5 3 2 2 2 4 2 4 5 4 8 9 10 13 16 16 15 16 17 18 18 17 16 17 17 16 14 13 11 10 10 9 9 11 12 10 8 8 8 7 7 7 7 7 7 6 6 6
2 6 5 2 1 2 5 8 8 3 3 7 9 10 10 14 15 18 19 18 19 18 18 18 17 17 17 16 15 12 10 10 10 11 13 14 13 11 9 9 9 8 8 9 8 8 7 7 7
4 7 10 4 1 1 5 10 5 3 5 9 9 10 11 14 16 18 18 18 18 17 18 17 14 16 17 15 14 11 11 12 11 12 12 15 15 14 11 10 10 10 9 8 8 8 8 8 8
8 8 11 5 2 2 5 10 8 6 8 11 12 13 13 13 15 17 18 19 19 19 19 18 16 17 17 15 13 12 12 12 12 12 13 15 17 17 14 11 10 11 9 9 9 8 9 8 9
7 8 5 5 2 5 9 13 13 12 10 12 14 15 15 15 16 16 17 19 19 19 18 18 16 17 16 12 11 11 12 13 13 13 14 15 15 17 15 12 13 12 10 10 10 11 10 10 9
3 3 2 1 2 5 8 12 12 10 3 4 6 8 10 12 13 12 14 16 17 18 18 19 18 18 14 12 12 12 14 13 12 13 15 16 16 17 16 13 14 13 12 13 13 12 13 11 9
2 2 1 1 2 5 8 9 5 8 8 8 9 10 11 13 11 9 9 11 15 17 18 17 17 17 15 13 12 10 8 10 13 13 15 18 18 18 15 16 13 13 12 14 15 14 11 11 10
1 1 1 1 4 2 6 4 7 9 10 10 11 10 12 14 15 15 14 11 9 11 13 13 14 14 14 14 11 10 10 10 10 13 14 16 17 17 17 17 15 14 13 13 15 15 16 13 12
2 1 2 3 5 2 4 5 8 8 13 15 16 16 17 17 18 18 16 14 10 7 7 8 9 10 11 12 13 16 13 13 14 11 11 12 15 17 18 18 17 15 13 14 14 15 14 14 10
2 2 1 2 3 3 2 2 5 3 10 12 15 17 15 16 18 19 17 15 13 9 5 5 6 8 10 12 14 14 14 14 11 10 11 13 13 15 17 17 17 16 14 15 16 15 15 13 12
4 3 2 2 2 2 2 3 2 2 5 6 11 16 15 14 16 17 17 15 15 13 10 7 5 5 6 9 13 16 18 16 14 13 12 11 10 12 16 17 17 17 16 16 16 15 15 13 12
5 5 3 3 3 1 1 5 4 4 2 0 6 11 14 14 15 17 18 17 16 16 14 12 10 8 6 5 8 12 14 15 16 14 12 11 10 11 13 16 16 16 16 16 15 15 14 14 13
1 3 3 1 1 1 2 7 5 7 4 3 3 6 11 13 13 14 14 14 14 15 15 15 14 12 10 8 7 8 10 9 11 12 11 11 10 9 11 13 15 16 16 16 15 12 13 13 13
2 2 2 1 1 3 3 7 8 10 8 5 1 7 12 12 12 12 13 13 13 14 14 14 14 14 13 11 8 7 8 9 10 11 11 10 11 10 12 13 15 17 17 18 16 13 15 15 14
1 4 2 3 3 4 3 7 9 10 11 8 1 8 8 8 9 10 10 11 11 11 12 13 14 14 13 13 11 8 7 8 9 11 12 12 13 13 14 14 16 17 17 17 15 13 15 14 13
5 4 1 1 2 4 4 7 2 4 3 2 6 8 9 10 9 7 7 7 8 9 9 10 11 12 11 11 11 11 11 10 8 9 10 12 13 14 15 16 16 18 18 18 17 17 17 17 15
1 2 5 4 3 4 4 10 1 3 3 4 7 8 7 6 5 6 6 6 6 7 8 10 11 11 11 9 9 9 9 10 10 10 10 11 12 13 14 15 17 18 18 18 19 18 17 18 17
Wind_Direction
311 299 275 238 230 231 230 212 241 221 197 137 99 183 314 326 337 6 110 138 154 148 148 152 157 145 136 133 136 130 122 157 131 128 120 106 106 89 71 68 72 76 73 79 79 80 100 102 105
319 284 245 233 237 226 214 196 217 216 88 123 136 209 241 75 55 102 135 143 155 143 149 149 147 145 141 142 138 130 140 174 143 138 133 115 110 108 87 75 76 88 101 99 98 98 115 111 111
263 272 245 222 225 229 223 202 192 148 148 189 171 242 329 74 100 122 110 134 146 139 142 113 131 147 147 146 137 148 167 174 150 126 112 105 107 108 100 84 91 109 110 114 117 113 130 120 111
235 233 233 230 213 221 235 72 150 162 194 220 231 185 136 62 80 113 129 145 148 140 137 111 129 135 146 147 150 169 186 180 157 121 102 98 103 108 113 109 117 112 117 115 125 130 157 113 106
206 248 230 221 217 210 222 235 214 196 202 190 206 167 136 128 114 134 147 151 146 141 134 124 129 136 158 168 163 183 188 176 157 145 134 121 109 111 117 134 142 137 133 139 149 172 187 147 128
212 245 232 214 212 208 222 216 203 217 210 179 201 185 117 128 144 147 153 157 152 153 151 141 146 152 168 189 162 186 191 184 164 165 175 137 117 111 98 99 106 124 121 128 143 185 202 191 158
242 244 250 225 217 213 205 175 208 205 212 196 195 192 125 156 140 148 156 159 164 167 167 169 172 168 178 183 157 197 189 183 164 186 183 146 129 120 86 66 100 106 100 107 146 197 198 201 189
259 256 238 221 215 217 176 195 227 214 215 152 222 235 121 138 138 150 157 168 180 183 186 185 188 193 197 188 171 193 171 166 157 174 139 117 120 129 118 107 89 90 92 107 148 168 164 174 269
245 243 232 218 212 213 161 213 174 239 223 192 193 51 89 131 143 154 165 182 197 200 201 199 201 209 211 197 171 187 176 158 166 166 143 157 184 166 155 99 89 97 108 120 138 142 171 198 223
228 235 234 239 257 303 293 237 202 213 212 209 195 156 140 153 168 173 181 190 202 207 206 204 209 212 206 200 192 203 192 194 198 196 185 202 197 174 150 125 127 122 128 138 123 101 205 215 209
224 236 233 243 323 309 280 234 216 232 227 227 217 182 166 177 188 191 194 201 204 207 205 210 211 208 204 200 206 207 205 208 207 205 204 203 200 185 194 186 181 184 184 191 183 187 209 220 224
229 233 253 274 13 265 247 229 222 230 243 330 278 185 178 190 197 200 202 206 207 208 210 205 217 210 205 203 206 208 210 210 209 207 208 206 206 205 208 205 196 208 210 213 217 225 214 219 225
233 224 232 261 280 268 251 227 241 245 241 238 244 195 202 208 209 209 212 214 216 217 217 211 208 215 207 207 208 209 211 211 213 211 211 212 213 212 209 205 201 204 211 220 224 234 237 233 232
221 237 256 263 268 309 284 253 240 241 221 219 215 217 219 224 220 215 215 218 219 221 221 216 208 213 210 210 212 212 213 214 217 217 216 216 219 218 213 212 213 216 218 223 229 237 243 245 243
236 230 212 177 299 335 295 244 225 215 206 226 225 231 232 237 230 225 221 221 223 225 225 221 214 211 211 213 214 215 214 214 216 218 218 217 219 221 218 221 220 221 224 226 230 238 242 246 246
202 217 218 155 351 348 285 258 225 209 242 248 245 246 242 242 235 236 235 232 231 231 229 226 218 216 215 216 217 215 218 217 219 218 220 218 218 220 222 224 229 229 227 229 233 239 241 243 247
204 206 217 193 88 330 273 273 266 251 255 270 274 272 265 257 249 243 242 238 235 231 230 227 219 219 216 215 219 220 222 223 224 222 223 220 218 219 220 224 227 231 233 233 236 240 244 248 248
189 202 204 223 59 305 275 276 287 291 284 283 286 285 280 271 262 254 247 243 242 240 236 233 223 222 217 210 215 221 226 227 225 226 226 224 221 221 222 227 227 225 229 231 230 237 238 241 251
133 161 197 183 49 299 285 298 325 338 330 312 315 305 297 293 291 279 266 257 248 241 236 232 226 221 213 207 206 211 224 227 227 228 230 228 225 222 220 224 227 225 227 230 230 231 236 236 237
166 177 147 185 199 278 299 316 30 32 38 22 5 360 349 338 332 326 317 289 264 249 237 232 230 224 215 212 209 215 227 229 227 227 227 226 226 224 220 222 224 223 225 231 232 233 236 240 232
185 283 105 272 282 252 299 104 71 45 60 62 52 32 21 11 3 356 346 334 296 269 258 245 240 234 225 218 215 220 228 231 232 227 226 226 228 228 226 226 226 225 224 228 227 227 227 230 226
159 201 232 284 311 20 360 124 87 52 69 58 48 39 34 32 28 19 10 7 358 327 291 266 257 251 242 229 224 223 224 232 235 235 234 228 225 226 225 226 226 225 222 226 226 224 223 226 226
130 161 243 303 300 288 26 281 112 99 75 58 45 38 39 38 32 23 20 19 20 14 350 305 272 252 240 230 227 231 237 246 250 243 238 232 225 223 225 224 224 224 224 226 226 222 220 220 216
161 181 156 176 234 223 14 302 150 142 93 67 42 34 34 36 28 24 23 25 25 22 19 13 348 310 276 247 235 231 236 242 244 240 237 234 226 220 221 220 220 222 223 226 227 225 222 218 214
211 238 224 192 191 112 357 279 237 178 173 317 19 19 20 32 26 22 21 19 21 20 18 16 12 6 349 296 265 256 255 255 254 252 247 241 231 224 221 219 220 222 224 226 227 225 221 215 211
122 300 301 305 323 122 212 265 249 190 182 258 317 359 27 32 26 26 27 23 23 21 21 19 19 15 5 343 310 282 270 268 271 274 273 268 262 252 241 231 233 234 231 230 228 226 223 219 217
161 164 18 26 58 276 265 283 269 189 213 236 210 24 35 30 23 27 29 31 29 27 27 28 29 27 19 7 346 320 295 278 273 272 268 265 264 263 257 244 235 234 232 231 228 223 225 221 222
21 113 167 202 219 239 255 264 240 181 192 196 319 22 34 36 35 31 29 30 30 33 34 35 32 28 21 13 8 350 326 300 285 280 276 272 269 266 261 253 248 243 240 237 237 236 234 229 223
151 173 138 2 342 293 274 265 253 229 173 9 12 15 16 34 46 45 41 38 44 42 34 28 22 19 16 14 8 3 353 341 322 301 292 284 279 274 267 263 257 251 245 238 231 233 234 232 228
354 194 190 216 181 248 288 276 257 228 102 29 2 359 18 50 61 56 48 41 37 27 15 6 2 4 5 4 2 4 0 353 348 338 325 311 298 289 281 274 267 262 255 247 239 235 234 235 231